When you browse on this site, cookies collect data to enhance your experience and personalize the content and advertising you see.
Visit our Privacy Policy to learn more. By continuing to use the site, you agree to this use of cookies and data.
  • In France
  • List of Countries
  • For 7 days
  • Water Temperature
  • Satellite Maps
  • Weather Map
  • Weather Widgets
  • user-avatar
    Login

    Hourly Weather Krasava

    Today, 19 February, Tuesday

    Time Temperature Precipitation Wind Pressure Humidity
    00:00 -12°C° 0 mm 4 mps 751 mmHg 88%
    01:00 -13°C° 0 mm 3 mps 752 mmHg 90%
    02:00 -14°C° 0 mm 3 mps 752 mmHg 91%
    03:00 -14°C° 0 mm 3 mps 752 mmHg 92%
    04:00 -14°C° 0 mm 2 mps 752 mmHg 92%
    05:00 -14°C° 0 mm 2 mps 752 mmHg 92%
    06:00 -15°C° 0 mm 2 mps 753 mmHg 93%
    07:00 -14°C° 0 mm 2 mps 753 mmHg 92%
    08:00 -14°C° 0 mm 2 mps 753 mmHg 92%
    09:00 -13°C° 0 mm 2 mps 753 mmHg 91%
    10:00 -13°C° 0 mm 3 mps 753 mmHg 89%
    11:00 -12°C° 0 mm 4 mps 752 mmHg 88%
    12:00 -10°C° 0 mm 4 mps 752 mmHg 86%
    13:00 -10°C° 0 mm 5 mps 751 mmHg 86%
    14:00 -10°C° 0 mm 5 mps 750 mmHg 85%
    15:00 -9°C° 0 mm 6 mps 750 mmHg 85%
    16:00 -9°C° 0 mm 6 mps 749 mmHg 85%
    17:00 -9°C° 0 mm 6 mps 749 mmHg 85%
    18:00 -9°C° 0 mm 6 mps 749 mmHg 85%
    19:00 -9°C° 0 mm 6 mps 749 mmHg 85%
    20:00 -9°C° 0 mm 6 mps 748 mmHg 86%
    21:00 -8°C° 0 mm 5 mps 748 mmHg 86%
    22:00 -8°C° 0 mm 5 mps 747 mmHg 86%
    23:00 -8°C° 0 mm 5 mps 747 mmHg 85%

    Tomorrow, 20 February, Wednesday

    Time Temperature Precipitation Wind Pressure Humidity
    00:00 -8°C° 0 mm 5 mps 746 mmHg 85%
    01:00 -8°C° 0 mm 5 mps 746 mmHg 84%
    02:00 -10°C° 0 mm 6 mps 746 mmHg 84%
    03:00 -10°C° 0 mm 6 mps 745 mmHg 83%
    04:00 -10°C° 0 mm 6 mps 745 mmHg 84%
    05:00 -10°C° 0 mm 6 mps 744 mmHg 85%
    06:00 -10°C° 0 mm 6 mps 743 mmHg 87%
    07:00 -9°C° 0 mm 6 mps 743 mmHg 87%
    08:00 -8°C° 0 mm 6 mps 743 mmHg 88%
    09:00 -8°C° 0 mm 7 mps 742 mmHg 89%
    10:00 -6°C° 0.1 mm 6 mps 742 mmHg 89%
    11:00 -5°C° 0.1 mm 6 mps 742 mmHg 89%
    12:00 -4°C° 0.1 mm 6 mps 741 mmHg 89%
    13:00 -4°C° 0.1 mm 6 mps 741 mmHg 89%
    14:00 -3°C° 0.1 mm 7 mps 741 mmHg 89%
    15:00 -3°C° 0.1 mm 7 mps 740 mmHg 89%
    16:00 -3°C° 0.2 mm 6 mps 740 mmHg 90%
    17:00 -3°C° 0.2 mm 6 mps 740 mmHg 91%
    18:00 -3°C° 0.2 mm 6 mps 740 mmHg 92%
    19:00 -3°C° 0.3 mm 6 mps 739 mmHg 92%
    20:00 -2°C° 0.3 mm 5 mps 739 mmHg 92%
    21:00 -1°C° 0.3 mm 5 mps 739 mmHg 93%
    22:00 -1°C° 0.1 mm 5 mps 739 mmHg 92%
    23:00 -1°C° 0.1 mm 5 mps 739 mmHg 92%

    Day after tomorrow, 21 February, Thursday

    Time Temperature Precipitation Wind Pressure Humidity
    00:00 -1°C° 0.1 mm 5 mps 738 mmHg 91%
    01:00 -2°C° 0 mm 5 mps 738 mmHg 92%
    02:00 -2°C° 0 mm 5 mps 738 mmHg 92%
    03:00 -2°C° 0 mm 5 mps 738 mmHg 92%
    04:00 -2°C° 0.1 mm 5 mps 737 mmHg 92%
    05:00 -2°C° 0.1 mm 5 mps 737 mmHg 93%
    06:00 -2°C° 0.1 mm 5 mps 736 mmHg 93%
    07:00 -2°C° 0.3 mm 5 mps 736 mmHg 93%
    08:00 -2°C° 0.3 mm 5 mps 736 mmHg 92%
    09:00 -2°C° 0.3 mm 5 mps 736 mmHg 92%
    10:00 -2°C° 0.3 mm 5 mps 736 mmHg 95%
    11:00 -2°C° 0.3 mm 4 mps 736 mmHg 97%
    12:00 -1°C° 0.3 mm 4 mps 735 mmHg 99%
    13:00 -2°C° 0.2 mm 4 mps 735 mmHg 97%
    14:00 -2°C° 0.2 mm 4 mps 735 mmHg 95%
    15:00 -3°C° 0.2 mm 4 mps 735 mmHg 93%
    16:00 -3°C° 0.1 mm 4 mps 735 mmHg 93%
    17:00 -4°C° 0.1 mm 3 mps 736 mmHg 94%
    18:00 -4°C° 0.1 mm 3 mps 736 mmHg 95%
    19:00 -4°C° 0.2 mm 3 mps 736 mmHg 94%
    20:00 -5°C° 0.2 mm 4 mps 736 mmHg 93%
    21:00 -5°C° 0.2 mm 4 mps 736 mmHg 92%
    22:00 -6°C° 0.2 mm 5 mps 736 mmHg 93%
    23:00 -6°C° 0.2 mm 5 mps 737 mmHg 93%

    22 February, Friday

    Time Temperature Precipitation Wind Pressure Humidity
    00:00 -6°C° 0.2 mm 5 mps 737 mmHg 93%
    01:00 -8°C° 0.3 mm 6 mps 737 mmHg 92%
    02:00 -9°C° 0.3 mm 7 mps 738 mmHg 91%
    03:00 -11°C° 0.3 mm 7 mps 738 mmHg 89%
    04:00 -12°C° 0.2 mm 7 mps 739 mmHg 89%
    05:00 -13°C° 0.2 mm 7 mps 740 mmHg 88%
    06:00 -13°C° 0.2 mm 7 mps 740 mmHg 87%
    07:00 -14°C° 0.1 mm 7 mps 741 mmHg 87%
    08:00 -14°C° 0.1 mm 7 mps 742 mmHg 86%
    09:00 -15°C° 0.1 mm 8 mps 742 mmHg 86%
    10:00 -14°C° 0.1 mm 7 mps 743 mmHg 85%
    11:00 -15°C° 0.1 mm 7 mps 743 mmHg 84%
    12:00 -15°C° 0.1 mm 7 mps 744 mmHg 83%
    13:00 -15°C° 0.1 mm 7 mps 744 mmHg 83%
    14:00 -15°C° 0.1 mm 7 mps 745 mmHg 83%
    15:00 -15°C° 0.1 mm 7 mps 745 mmHg 83%
    16:00 -15°C° 0.1 mm 6 mps 746 mmHg 85%
    17:00 -16°C° 0.1 mm 6 mps 746 mmHg 86%
    18:00 -15°C° 0.1 mm 5 mps 747 mmHg 88%
    19:00 -17°C° 0.1 mm 5 mps 747 mmHg 88%
    20:00 -17°C° 0.1 mm 5 mps 747 mmHg 89%
    21:00 -17°C° 0.1 mm 4 mps 748 mmHg 89%
    22:00 -17°C° 0 mm 4 mps 748 mmHg 89%
    23:00 -17°C° 0 mm 4 mps 749 mmHg 90%

    23 February, Saturday

    Time Temperature Precipitation Wind Pressure Humidity
    00:00 -17°C° 0 mm 4 mps 749 mmHg 90%
    01:00 -17°C° 0.1 mm 4 mps 750 mmHg 91%
    02:00 -17°C° 0.1 mm 4 mps 750 mmHg 91%
    03:00 -16°C° 0.1 mm 4 mps 751 mmHg 91%
    04:00 -16°C° 0.1 mm 4 mps 751 mmHg 91%
    05:00 -16°C° 0.1 mm 4 mps 752 mmHg 92%
    06:00 -16°C° 0.1 mm 4 mps 752 mmHg 92%
    07:00 -16°C° 0.1 mm 4 mps 753 mmHg 91%
    08:00 -16°C° 0.1 mm 4 mps 753 mmHg 90%
    09:00 -16°C° 0.1 mm 4 mps 754 mmHg 90%
    10:00 -15°C° 0 mm 4 mps 754 mmHg 89%
    11:00 -15°C° 0 mm 4 mps 754 mmHg 88%
    12:00 -15°C° 0 mm 4 mps 755 mmHg 87%
    13:00 -14°C° 0 mm 4 mps 755 mmHg 86%
    14:00 -14°C° 0 mm 4 mps 755 mmHg 86%
    15:00 -13°C° 0 mm 3 mps 755 mmHg 85%
    16:00 -13°C° 0 mm 3 mps 756 mmHg 88%
    17:00 -13°C° 0 mm 2 mps 756 mmHg 90%
    18:00 -13°C° 0 mm 2 mps 757 mmHg 92%
    19:00 -14°C° 0 mm 2 mps 757 mmHg 93%
    20:00 -14°C° 0 mm 2 mps 757 mmHg 94%
    21:00 -15°C° 0 mm 2 mps 758 mmHg 94%
    22:00 -15°C° 0 mm 2 mps 758 mmHg 95%
    23:00 -14°C° 0 mm 2 mps 758 mmHg 95%

    24 February, Sunday

    Time Temperature Precipitation Wind Pressure Humidity
    00:00 -14°C° 0 mm 2 mps 759 mmHg 95%
    01:00 -14°C° 0 mm 2 mps 759 mmHg 96%
    02:00 -14°C° 0 mm 2 mps 759 mmHg 96%
    03:00 -14°C° 0 mm 2 mps 759 mmHg 96%
    04:00 -15°C° 0 mm 2 mps 760 mmHg 96%
    05:00 -16°C° 0 mm 2 mps 760 mmHg 95%
    06:00 -16°C° 0 mm 2 mps 760 mmHg 95%
    07:00 -17°C° 0 mm 2 mps 760 mmHg 94%
    08:00 -17°C° 0 mm 2 mps 760 mmHg 93%
    09:00 -17°C° 0 mm 2 mps 761 mmHg 92%
    10:00 -16°C° 0 mm 2 mps 761 mmHg 88%
    11:00 -15°C° 0 mm 2 mps 761 mmHg 84%
    12:00 -13°C° 0 mm 2 mps 761 mmHg 80%
    13:00 -12°C° 0 mm 2 mps 761 mmHg 81%
    14:00 -10°C° 0 mm 2 mps 761 mmHg 81%
    15:00 -10°C° 0 mm 2 mps 761 mmHg 81%
    16:00 -12°C° 0 mm 2 mps 761 mmHg 84%
    17:00 -13°C° 0 mm 2 mps 761 mmHg 86%
    18:00 -14°C° 0 mm 2 mps 761 mmHg 89%
    19:00 -15°C° 0 mm 2 mps 761 mmHg 89%
    20:00 -15°C° 0 mm 2 mps 761 mmHg 89%
    21:00 -15°C° 0 mm 2 mps 761 mmHg 88%
    22:00 -15°C° 0 mm 2 mps 761 mmHg 89%
    23:00 -15°C° 0 mm 2 mps 761 mmHg 90%
    Show more